Regional Weather Roundup
Issued by NWS Portland, ME

Home | Current Version | Previous Version | Text Only | Print | Product List | Glossary On
Versions: 1 2 3 4 5 6 7 8 9 10 11 12 13 14 15 16 17 18 19 20 21 22 23 24 25 26 27 28 29 30 31 32 33 34 35 36 37 38 39 40 41 42 43 44 45 46 47 48 49 50
000
ASUS41 KGYX 010210
RWRGYX
WEATHER ROUNDUP FOR MAINE AND NEW HAMPSHIRE
NATIONAL WEATHER SERVICE GRAY ME
1000 PM EDT MON AUG 31 2015

MEZ002-005-006-010-012-015-018-020-021-024-026-027-029-010300-
MAINE

CITY           SKY/WX    TMP DP  RH WIND       PRES   REMARKS
PORTLAND       PTCLDY    73  62  68 N3        29.91R
SANFORD        CLEAR     70  57  64 W5        29.92S
BAR HARBOR     CLEAR     72  63  73 W5        29.86R
WISCASSET      CLEAR     73  60  63 VRB5      29.92R
ROCKLAND       CLEAR     70  61  73 W5        29.88R
FRYEBURG       CLEAR     72  61  68 W3        29.94R
LEWISTONAUBURN PTCLDY    70 N/A N/A NW6       29.93R
AUGUSTA        PTCLDY    71  58  63 W3        29.91R
WATERVILLE     PTCLDY    70  57  64 W5        29.87S
BANGOR         CLEAR     69  59  70 W8        29.86S
GREENVILLE       N/A     65  53  65 N15G22    29.91R
MILLINOCKET    NOT AVBL
HOULTON        CLEAR     65  52  62 W6        29.82R
PRESQUE ISLE   PTCLDY    64  52  63 NW7       29.82S
FRENCHVILLE    CLEAR     62  54  74 NW15      29.83R
CARIBOU        CLEAR     64  54  69 NW9       29.82R
$$

NHZ002-005-008-009-011-012-014-010300-
NEW HAMPSHIRE

CITY           SKY/WX    TMP DP  RH WIND       PRES   REMARKS
PORTSMOUTH     CLEAR     75  62  64 W8        29.90R
ROCHESTER      CLEAR     71  62  73 SW3       29.92R
NASHUA         CLEAR     74  64  71 NW3       29.94R
MANCHESTER     PTCLDY    77  63  61 NW5       29.92R
CONCORD        CLEAR     71  61  70 NW6       29.94R
LACONIA        CLEAR     72  61  68 W6        29.95R
PLYMOUTH       FAIR      69  62  78 CALM      29.96R
BERLIN         CLEAR     65  59  81 CALM      29.97S
WHITEFIELD     CLEAR     60  57  89 CALM      29.98S
JAFFREY        CLEAR     69  62  78 CALM      29.99R
KEENE          CLEAR     66  61  82 CALM      29.97R
LEBANON        CLEAR     65  62  90 CALM      29.97R
MT WASHINGTON  DRZL/FOG  48  48 100 NW36G48     N/A  VSB 1/16
$$

VTZ005-007-008-010300-
VERMONT

CITY           SKY/WX    TMP DP  RH WIND       PRES   REMARKS
ST JOHNSBURY     N/A     65  61  87 MISG      29.97R
MONTPELIER     CLEAR     68  61  78 NW10      30.04R
BURLINGTON     PTCLDY    68  62  81 E5        29.98R
$$

MAZ007-012-024-CTZ003-RIZ002-NYZ038-NYZ072-010300-
SOUTHERN NEW ENGLAND AND NY

CITY           SKY/WX    TMP DP  RH WIND       PRES   REMARKS
BOSTON         CLEAR     81  62  52 W14       29.92R
WORCESTER      CLEAR     73  61  65 W10       29.98S
NANTUCKET      CLEAR     73  69  87 W15       29.94S
PROVIDENCE     PTCLDY    77  67  71 W6        29.94S
HARTFORD       CLEAR     75  66  73 NW6       29.96R
ALBANY         CLEAR     75  61  61 NW8       29.97F
NEW YORK CITY  PTCLDY    87  64  46 W14       29.97R
$$

ANZ081-ANZ082-ANZ150-NHZ014-MEZ023>029-010300-
COASTAL MARINE OBSERVATIONS

STATION/POSITION TIME  TEMP    WIND        PRES    WAVE
                       AIR SEA DIR/SP/G            HT/PER
                 (UTC) (F)     (DEG/KT/KT) (MB)    (FT/S)
MOUNT DESERT ROC 0200   66     280/ 16/ 16 1011.2R
MATINICUS ROCK   0200          300/ 18/ 19 1011.3R
ISLE OF SHOALS   0200   77     290/  8/  9 1012.4R
JEFFREYS LEDGE   0103      69                N/A     2/ 8
CASHES LEDGE BUO 0150   70                 1011.4R   2/ 7
GEORGES BANK BUO 0150   70 68  270/ 14/ 16 1012.2F   3/ 5
$$

.............KEY..............
   WCI - WIND CHILL
   TC  - TEMPERATURE IN CELSIUS
   VSB - VISIBILITY IN MILES
   HX  - HEAT INDEX
   FAIR- INDICATES FEW OR NO CLOUDS BELOW 12,000 FT, WITH NO
         SIGNIFICANT WEATHER AND/OR OBSTRUCTIONS TO VISIBILITY.





USA.gov is the U.S. government's official web portal to all federal, state and local government web resources and services.